{"data":{"norad_id":54868,"epoch":"2026-05-25T02:57:44.365824Z","epoch_age_seconds":63516,"freshness":"FRESH","line1":"1 54868U 22177BA  26145.12343016  .00000147  00000+0  14870-4 0  9993","line2":"2 54868  43.0074  49.6161 0001769 258.9202 101.1451 15.27576990188785","mean_motion":15.2757699,"eccentricity":0.0001769,"inclination_deg":43.0074,"raan_deg":49.6161,"arg_perigee_deg":258.9202,"mean_anomaly_deg":101.1451,"bstar":1.487e-5,"rev_number":18878,"period_min":94.266934460698,"perigee_km":481.8443636625,"apogee_km":484.27185449209,"semimajor_km":6861.1951090773,"source":"CELESTRAK","updated_at":"2026-05-25T13:38:17.729387Z"}}